TimeCST,TemperatureF,Dew PointF,Humidity,Sea Level PressureIn,VisibilityMPH,Wind Direction,Wind SpeedMPH,Gust SpeedMPH,PrecipitationIn,Events,Conditions,WindDirDegrees,DateUTC
12:53 AM,41.0,35.1,79,30.27,9.0,Calm,Calm,-,N/A,,Clear,0,2013-03-08 06:53:00
1:53 AM,37.9,33.1,83,30.27,8.0,Calm,Calm,-,N/A,,Clear,0,2013-03-08 07:53:00
2:53 AM,37.0,32.0,82,30.25,7.0,ENE,3.5,-,N/A,,Clear,70,2013-03-08 08:53:00
3:53 AM,39.0,32.0,76,30.25,9.0,Calm,Calm,-,N/A,,Clear,0,2013-03-08 09:53:00
4:53 AM,37.9,32.0,79,30.27,10.0,Calm,Calm,-,N/A,,Clear,0,2013-03-08 10:53:00
5:53 AM,37.0,30.9,79,30.29,10.0,ENE,3.5,-,N/A,,Clear,60,2013-03-08 11:53:00
6:53 AM,39.0,32.0,76,30.30,10.0,Calm,Calm,-,N/A,,Clear,0,2013-03-08 12:53:00
7:53 AM,46.9,36.0,66,30.32,10.0,ENE,4.6,-,N/A,,Clear,70,2013-03-08 13:53:00
8:53 AM,51.1,36.0,56,30.33,10.0,East,3.5,-,N/A,,Clear,100,2013-03-08 14:53:00
9:53 AM,55.9,37.0,49,30.33,10.0,East,5.8,-,N/A,,Clear,80,2013-03-08 15:53:00
10:53 AM,61.0,37.0,41,30.32,10.0,ESE,4.6,-,N/A,,Clear,110,2013-03-08 16:53:00
11:53 AM,64.0,37.0,37,30.30,10.0,Variable,3.5,-,N/A,,Clear,0,2013-03-08 17:53:00
12:53 PM,66.9,36.0,32,30.27,10.0,Calm,Calm,-,N/A,,Clear,0,2013-03-08 18:53:00
1:53 PM,71.1,37.0,29,30.24,10.0,ENE,5.8,-,N/A,,Clear,70,2013-03-08 19:53:00
2:53 PM,69.1,35.1,29,30.22,10.0,Calm,Calm,-,N/A,,Clear,0,2013-03-08 20:53:00
3:53 PM,68.0,34.0,28,30.20,10.0,East,3.5,-,N/A,,Clear,100,2013-03-08 21:53:00
4:53 PM,69.1,34.0,27,30.17,10.0,SE,3.5,-,N/A,,Clear,130,2013-03-08 22:53:00
5:53 PM,66.0,39.0,37,30.18,10.0,East,3.5,-,N/A,,Clear,90,2013-03-08 23:53:00
6:53 PM,61.0,41.0,48,30.19,10.0,Calm,Calm,-,N/A,,Clear,0,2013-03-09 00:53:00
7:53 PM,57.0,42.1,57,30.19,10.0,Calm,Calm,-,N/A,,Clear,0,2013-03-09 01:53:00
8:53 PM,57.0,42.1,57,30.19,10.0,Calm,Calm,-,N/A,,Clear,0,2013-03-09 02:53:00
9:53 PM,55.0,44.1,67,30.17,10.0,East,4.6,-,N/A,,Clear,100,2013-03-09 03:53:00
10:53 PM,57.9,39.9,51,30.17,10.0,Calm,Calm,-,N/A,,Clear,0,2013-03-09 04:53:00
11:53 PM,57.9,39.9,51,30.12,10.0,East,5.8,-,N/A,,Clear,80,2013-03-09 05:53:00